Friday Harbor, WA
on Sunday, February 3, 2013

Sunday
Previous Day Next Day
Daily Summary
 ActualAverageRecord
Temperature
Mean Temperature °F °F  
Max Temperature 45°F 45°F 55°F (2000)
Min Temperature 41°F 35°F 28°F (2014)
Degree Days
Heating Degree Days 22    
Moisture
Dew Point 41°F   
Average Humidity 93    
Maximum Humidity 100    
Minimum Humidity 86    
Precipitation
Precipitation 0.01 in in in ()
Wind
Wind Speed 4 mph   
Max Wind Speed 8 mph   
Max Gust Speed mph   
Visibility 8 miles   
Events Rain   
Averages and records for this station are not official NWS values.
Key: T is trace of precipitation, MM is missing value
Source: NWS Daily Summary
Seasonal Weather Averages
Time(PST)TemperatureDew PointHumidity Pressure Visibility Wind DirectionWind SpeedGust SpeedPrecipitationEvents Conditions
12:07 AM 42.8°F 39.2°F 87% 30.28 in 10.0 miles ESE 4.6 mph - N/A   Overcast
12:43 AM 42.8°F 39.2°F 87% 30.29 in 10.0 miles East 4.6 mph - N/A   Overcast
12:53 AM 42.1°F 39.0°F 89% 30.29 in 10.0 miles East 3.5 mph - N/A   Overcast
1:53 AM 42.1°F 39.0°F 89% 30.27 in 10.0 miles ESE 5.8 mph - N/A   Overcast
2:53 AM 42.1°F 39.0°F 89% 30.27 in 10.0 miles ESE 5.8 mph - N/A   Overcast
3:53 AM 41.0°F 39.0°F 93% 30.27 in 10.0 miles ESE 6.9 mph - N/A   Overcast
5:30 AM 41.0°F 39.2°F 93% 30.28 in 5.0 miles East 5.8 mph - N/A   Overcast
5:53 AM 41.0°F 39.0°F 93% 30.28 in 5.0 miles ESE 5.8 mph - N/A   Overcast
6:53 AM 41.0°F 39.0°F 93% 30.28 in 6.0 miles ESE 5.8 mph - N/A   Overcast
7:53 AM 41.0°F 39.9°F 96% 30.28 in 6.0 miles SE 5.8 mph - N/A   Overcast
8:53 AM 41.0°F 39.9°F 96% 30.29 in 4.0 miles East 4.6 mph - N/A   Overcast
9:53 AM 42.1°F 39.9°F 92% 30.28 in 9.0 miles ESE 8.1 mph - N/A   Overcast
10:53 AM 43.0°F 39.9°F 89% 30.31 in 10.0 miles SE 5.8 mph - N/A   Overcast
11:39 AM 42.8°F 41.0°F 93% 30.29 in 10.0 miles ESE 4.6 mph - N/A   Overcast
11:53 AM 43.0°F 41.0°F 93% 30.30 in 10.0 miles ESE 5.8 mph - N/A   Overcast
12:40 PM 44.6°F 41.0°F 87% 30.27 in 10.0 miles ESE 5.8 mph - 0.00 in Rain Light Rain
12:48 PM 44.6°F 41.0°F 87% 30.27 in 10.0 miles SE 5.8 mph - 0.00 in   Overcast
12:53 PM 45.0°F 41.0°F 86% 30.27 in 10.0 miles SE 5.8 mph - 0.00 in   Overcast
1:53 PM 45.0°F 41.0°F 86% 30.26 in 10.0 miles SSE 5.8 mph - N/A   Overcast
2:27 PM 44.6°F 41.0°F 87% 30.25 in 10.0 miles SSE 5.8 mph - 0.00 in Rain Light Rain
2:53 PM 44.1°F 41.0°F 89% 30.26 in 7.0 miles South 3.5 mph - 0.00 in Rain Light Rain
3:53 PM 44.1°F 42.1°F 93% 30.25 in 7.0 miles South 3.5 mph - 0.01 in Rain Light Rain
4:53 PM 43.0°F 42.1°F 97% 30.24 in 5.0 miles Calm Calm - 0.00 in Rain Light Rain
5:41 PM 42.8°F 42.8°F 100% 30.24 in 6.0 miles Calm Calm - 0.00 in Rain Light Rain
5:53 PM 43.0°F 42.1°F 97% 30.24 in 6.0 miles Calm Calm - 0.00 in Rain Light Rain
6:53 PM 43.0°F 43.0°F 100% 30.23 in 7.0 miles Calm Calm - 0.00 in Rain Light Rain
7:01 PM 42.8°F 42.8°F 100% 30.23 in 7.0 miles Calm Calm - 0.00 in Rain Light Rain
7:53 PM 42.1°F 42.1°F 100% 30.22 in 5.0 miles Calm Calm - 0.00 in Rain Light Rain
8:06 PM 42.8°F 42.8°F 100% 30.22 in 6.0 miles Calm Calm - 0.00 in   Overcast
8:53 PM 42.1°F 42.1°F 100% 30.22 in 5.0 miles Calm Calm - 0.00 in   Overcast
9:53 PM 42.1°F 41.0°F 96% 30.21 in 10.0 miles South 3.5 mph - N/A   Overcast
10:21 PM 42.8°F 42.8°F 100% 30.21 in 10.0 miles SSW 3.5 mph - N/A   Overcast
10:34 PM 42.8°F 42.8°F 100% 30.21 in 10.0 miles Calm Calm - N/A   Overcast
10:53 PM 43.0°F 41.0°F 93% 30.21 in 10.0 miles SSW 3.5 mph - N/A   Overcast
11:53 PM 41.0°F 39.9°F 96% 30.19 in 10.0 miles SSW 3.5 mph - N/A   Scattered Clouds
Moon Phase
Feb. 03 Feb. 10 Feb. 17 Feb. 25 Mar. 04
Sunrise:07:37 AM (PST) Moon Rise:01:13 AM (PST)2/3
Sunset:05:14 PM (PST) Moon Set:10:52 AM (PST)2/3

Copyright © 2014 The Weather Underground, Inc.